Powrót do katalogu

CZ-6A DEB

AktywnyPO
NORAD 60625·DEBRIS·🇨🇳 China

Wystrzelony Aug 6, 2024 z Taiyuan Satellite Launch Center

Loading…

Następne Przeloty (najbliższe 24 godziny)

TLE

ŚwieżeSource: Space-Track

Epoka: Sep 14, 2026, 10:59 UTC

1 60625U 24140AA  26257.45765064  .00004250  00000-0  10848-2 0  9993
2 60625  88.9916 260.7390 0063657  38.8079 321.7673 14.49164781110849

Śledź CZ-6A DEB w czasie rzeczywistym z AllMySat

Download on the App Store